Location: Unspecified
(45.3617°N, 0.0000°E)
Time: 07:12:07
(UTC+00:00)

NOAA 16 DEB - Visible Passes

Search period start: 04 April 2026 00:00
Search period end: 14 April 2026 00:00
Orbit: 809 x 855 km, 98.6° (Epoch: 28 March)

Date Brightness Start Highest point End Pass type
(mag) Time Alt. Az. Time Alt. Az. Time Alt. Az.
5 Apr ? 20:18:03 10° WSW 20:19:31 11° W 20:21:00 10° WNW visible
6 Apr ? 19:58:41 10° SW 20:01:56 16° W 20:05:12 10° NW visible
7 Apr ? 19:40:16 10° SW 19:44:25 23° W 19:48:34 10° NW visible
8 Apr ? 19:22:13 10° SSW 19:26:55 32° W 19:31:39 10° NNW visible
9 Apr ? 19:04:25 10° S 19:09:28 45° W 19:14:34 10° NNW visible
11 Apr ? 20:13:49 10° WSW 20:15:47 12° W 20:17:45 10° WNW visible
12 Apr ? 19:54:44 10° SW 19:58:11 17° W 20:01:39 10° NW visible
13 Apr ? 19:36:22 10° SSW 19:40:38 24° W 19:44:55 10° NW visible
